Regional Weather Roundup
Issued by NWS Jackson, KY

Home | Current Version | Previous Version | Text Only | Print | Product List | Glossary Off
Versions: 1 2 3 4 5 6 7 8 9 10 11 12 13 14 15 16 17 18 19 20 21 22 23 24 25 26 27 28 29 30 31 32 33 34 35 36 37 38 39 40 41 42 43 44 45 46 47 48 49 50

000
ASUS43 KJKL 281410
RWRJKL

EAST KENTUCKY HOURLY WEATHER ROUNDUP
NATIONAL WEATHER SERVICE JACKSON KY
1000 AM EDT MON JUL 28 2014

NOTE: "FAIR" INDICATES FEW OR NO CLOUDS BELOW 12,000 FEET WITH
NO SIGNIFICANT WEATHER AND/OR OBSTRUCTIONS TO VISIBILITY.

* THESE REPORTS ARE NOT UNDER NWS QUALITY CONTROL AND MAY NOT
  REPORT WEATHER SUCH AS PRECIPITATION AND FOG.

KYZ079-080-083-085-087-088-110-112-115-119-120-281500
...EASTERN KENTUCKY...

CITY           SKY/WX    TMP DP  RH WIND       PRES   REMARKS
JACKSON        PTSUNNY   68  61  78 VRB6      29.94R
LONDON         SUNNY     71  60  68 W10       29.96S
SOMERSET*      SUNNY     70  61  73 NW8       29.98R
MONTICELLO*    SUNNY     72  63  73 W8        30.00R
WILLIAMSBURG*    N/A     68  64  88 W7        29.97S
MIDDLESBORO*   PTSUNNY   71  61  70 W6        29.97R
HARLAN APT*    CLOUDY    68  63  83 MISG      29.96S
HAZARD APT*    PTSUNNY   70  61  73 W8        29.94
BLACK MTN*       N/A     57  57 100 NE2         N/A
PIKEVILLE APT* CLOUDY    68  63  83 W3        29.93R
BIG SANDY*     PTSUNNY   69  62  78 W7        29.92R
MOREHEAD APT*  CLOUDY    66  59  77 W7G16     29.94S
$$

KYZ035-036-041-042-044-050-067-078-099-281500
...CENTRAL KENTUCKY...

CITY           SKY/WX    TMP DP  RH WIND       PRES   REMARKS
MT STERLING*   MOSUNNY   68  61  77 NW10G16   29.95S
FLEMING/MASON* CLOUDY    66  61  82 W12       29.93R
DANVILLE*      CLOUDY    68  59  73 NW8       29.98R
RICHMOND*      CLOUDY    68  59  73 NW10      29.95R
LEXINGTON      CLOUDY    68  60  75 NW12      29.96R
FRANKFORT      CLOUDY    67  58  72 NW8G17    29.95R
$$

KYZ091>093-OHZ055-061-077-WVZ005-015-034-035-042-281500
...SOUTHERN OHIO/WEST VIRGINIA...

CITY           SKY/WX    TMP DP  RH WIND       PRES   REMARKS
COVINGTON      CLOUDY    66  59  78 NW9       29.94R
COLUMBUS       CLOUDY    68  59  73 NW12G22   29.85R
DAYTON         CLOUDY    67  59  75 NW14G21   29.92R
WILMINGTON     CLOUDY    66  57  72 NW10      29.90R
HUNTINGTON     CLOUDY    67  61  81 W10       29.88R
CHARLESTON     CLOUDY    68  61  78 NW12      29.87R
PINEVILLE*     CLOUDY    69  64  84 MISG      29.96R
BECKLEY        CLOUDY    64  57  78 W13       29.91R
BLUEFIELD      CLOUDY    65  57  75 W13G22    29.94R
$$

VAZ002-007-008-TNZ017-027-036-066-071-281500
...SOUTHWEST VIRGINIA/EAST TENNESSEE...

CITY           SKY/WX    TMP DP  RH WIND       PRES   REMARKS
WISE*          CLOUDY    66  61  82 W10       29.99R
JONESVILLE*    SUNNY     72  63  73 W8        29.98R
ABINGDON*      PTSUNNY   71  63  75 W14       29.94S
BRISTOL        MOSUNNY   73  63  70 W12       29.94S
KNOXVILLE      MOSUNNY   74  65  73 W10       29.96R
OAK RIDGE      SUNNY     75  62  64 W7        29.98R
CROSSVILLE     LGT RAIN  71  60  68 NW7       30.03R
NASHVILLE      SUNNY     75  61  61 NW8       30.02R
$$

...KEY TO REMARKS...
VSB - VISIBILITY IN MILES
WCI - WIND CHILL INDEX
HX  - HEAT INDEX

$$


USA.gov is the U.S. government's official web portal to all federal, state and local government web resources and services.